Location: Cheyres
(46.8153°N, 6.7877°E)
Time: 21:25:00
(UTC+00:00)

NANOSAT C BR1 - Pass Details

Date: 29 June 2022
Orbit: 584 x 599 km, 98.0° (Epoch: 13 August)

Event Time Altitude Azimuth Distance (km) Brightness Sun altitude
Rises 00:54:26 0° 24° (NNE) 2,847 ? -17.8°
Reaches altitude 10° 00:56:56 10° 38° (NE) 1,942 ? -17.6°
Maximum altitude 01:00:26 25° 95° (E) 1,215 ? -17.4°
Enters shadow 01:03:01 15° 142° (SE) 1,644 ? -17.3°
